Flag for India Weather past 2 weeks in Maraimalai Nagar, Tamil Nadu, India

Now
84 °F

Partly cloudy.


Feels Like: 91 °F
Forecast: 78 / 91 °F
Wind: 3 mph from North

Location: Madras / Minambakkam

Current Time: Sep 19, 2014 at 8:05:06 PM

Latest Report: Sep 19, 2014 at 7:40 PM


Visibility: 4 mi

Pressure: 29.68 "Hg

Humidity: 70%

Dew point: 73 °F

Location of Maraimalai NagarLocation

Historic Weather in Maraimalai Nagar — Graph

°F

Maraimalai Nagar temperature yesterday

Maximum temperature yesterday: 84 °F (at 12:10 AM)
Minimum temperature yesterday: 77 °F (at 5:10 AM)
Average temperature yesterday: 80 °F

Past Weeks' High & Low Weather Summary

 TemperatureHumidityPressure
High99 °F (Sep 9, 4:10 PM)100% (Sep 15, 10:10 PM)29.83 "Hg (Sep 15, 10:10 PM)
Low73 °F (Sep 15, 10:10 PM)39% (Sep 9, 4:10 PM)29.56 "Hg (Sep 16, 3:40 PM)
Average84 °F74%29.70 "Hg
* Reported Sep 4 6:40 PM — Sep 19 6:40 PM, Maraimalai Nagar, Weather by CustomWeather, © 2014

Note: Actual official high and low records may vary slightly from our data, if they occured in-between our weather recording intervals... More about our weather records

Advertising

Maraimalai Nagar weather history for previous 24 hours

 ConditionsComfort  
Time TempWeatherWind HumidityBarometerVisibility
6:40 PM
Sep 19
84 °FPassing clouds.7 mph70%29.68 "Hg4 mi
6:10 PM84 °FScattered clouds.6 mph70%29.65 "Hg4 mi
5:40 PM86 °FScattered clouds.8 mph66%29.62 "Hg4 mi
5:10 PM88 °FScattered clouds.6 mph62%29.62 "Hg4 mi
4:10 PM93 °FScattered clouds.9 mph49%29.59 "Hg5 mi
3:40 PM93 °FScattered clouds.8 mph49%29.59 "Hg5 mi
3:10 PM93 °FScattered clouds.8 mph49%29.62 "Hg5 mi
2:40 PM93 °FScattered clouds.7 mph49%29.62 "Hg5 mi
2:10 PM93 °FScattered clouds.8 mph49%29.62 "Hg5 mi
1:40 PM93 °FScattered clouds.8 mph49%29.65 "Hg5 mi
1:10 PM93 °FScattered clouds.12 mph49%29.65 "Hg5 mi
12:40 PM91 °FPassing clouds.10 mph52%29.68 "Hg5 mi
12:10 PM91 °FPassing clouds.10 mph52%29.68 "Hg5 mi
11:40 AM90 °FPassing clouds.10 mph59%29.71 "Hg5 mi
11:10 AM91 °FPassing clouds.12 mph56%29.71 "Hg5 mi
10:40 AM90 °FPassing clouds.12 mph59%29.74 "Hg5 mi
10:10 AM88 °FPassing clouds.14 mph62%29.74 "Hg4 mi
9:40 AM88 °FScattered clouds.9 mph62%29.74 "Hg4 mi
9:10 AM86 °FScattered clouds.9 mph66%29.74 "Hg3 mi
8:40 AM84 °FScattered clouds.7 mph70%29.74 "Hg3 mi
8:10 AM82 °FBroken clouds.6 mph74%29.74 "Hg3 mi
7:40 AM81 °FBroken clouds.5 mph79%29.74 "Hg3 mi
6:40 AM79 °FBroken clouds.3 mph84%29.71 "Hg4 mi
6:10 AM79 °FPartly cloudy.6 mph79%29.71 "Hg4 mi
5:40 AM79 °FPartly cloudy.6 mph79%29.68 "Hg4 mi
5:10 AM79 °FPartly cloudy.6 mph79%29.68 "Hg4 mi
4:40 AM79 °FPartly cloudy.6 mph79%29.68 "Hg4 mi
4:10 AM79 °FPartly cloudy.3 mph84%29.68 "Hg4 mi
3:40 AM79 °FPartly cloudy.3 mph84%29.65 "Hg4 mi
3:10 AM79 °FPartly cloudy.6 mph84%29.65 "Hg4 mi
2:40 AM81 °FPartly cloudy.7 mph79%29.65 "Hg4 mi
2:10 AM81 °FPartly cloudy.8 mph79%29.68 "Hg4 mi
1:40 AM81 °FPartly cloudy.8 mph79%29.68 "Hg4 mi
1:10 AM81 °FPartly cloudy.9 mph79%29.71 "Hg4 mi
12:40 AM79 °FPartly cloudy.3 mph84%29.71 "Hg4 mi
12:10 AM81 °FPartly cloudy.6 mph79%29.71 "Hg4 mi
11:40 PM
Sep 18
79 °FPartly cloudy.3 mph84%29.74 "Hg4 mi
11:10 PM79 °FPartly cloudy.5 mph79%29.74 "Hg4 mi
10:40 PM79 °FPartly cloudy.5 mph79%29.74 "Hg4 mi
10:10 PM79 °FPartly cloudy.5 mph79%29.74 "Hg4 mi
9:40 PM79 °FPartly cloudy.5 mph79%29.74 "Hg4 mi
9:10 PM79 °FPartly cloudy.6 mph84%29.74 "Hg4 mi
8:40 PM79 °FPartly cloudy.3 mph84%29.71 "Hg4 mi
8:10 PM79 °FPartly cloudy.6 mph84%29.71 "Hg4 mi
Weather by CustomWeather, © 2014

See weather overviewHow to use our weather pages